Dewpoint
60 49 51 53 52 43 35 25 1 9 2 -3 -10 -1 -6 1 9 2 7 16 18 49 46 48 45 43 50 45 50 55 57 50 53 47 52 65 68 70 68 68 69 69 68 68 69 70 71 72 72 72 72 72 71 71 71 71 71 71 71 71 70 70 70 70 70 69 69 69 70 70 68 68 69 71 71 71 71 71 71 71 71 71 71 71 70 70 70 70 70 70 69 70 69 70 70 70 69
39 48 51 51 45 34 24 22 7 8 5 -5 -4 -4 -1 12 6 -1 10 19 41 48 49 47 50 52 52 51 51 51 54 60 59 60 65 67 68 68 67 69 68 69 69 69 69 69 69 71 72 72 72 72 71 71 71 71 71 70 70 70 70 70 70 70 69 69 69 69 69 68 67 68 68 70 71 71 71 71 71 71 71 71 71 71 71 71 71 70 70 70 70 70 70 70 70 69 69
40 47 40 42 36 26 26 18 5 3 0 -0 -4 -0 5 5 7 17 23 29 50 50 51 49 50 55 52 51 48 52 53 61 61 62 64 67 65 68 69 69 69 69 69 69 68 68 69 70 72 72 71 71 71 71 71 71 70 70 70 70 70 70 69 69 69 69 68 68 68 68 68 67 68 69 70 71 71 71 71 71 71 71 71 71 71 70 70 70 70 70 70 70 70 70 70 70 70
46 46 42 34 29 17 17 14 5 4 -2 -9 -7 -2 -5 3 11 20 27 39 44 47 49 48 48 55 54 49 54 57 58 59 61 62 63 64 64 68 69 69 71 69 69 68 67 66 69 71 72 72 71 71 71 71 71 70 70 70 70 70 70 70 69 69 69 68 68 68 68 68 68 67 68 68 69 69 71 71 71 71 71 71 70 70 70 70 70 69 69 69 69 69 70 70 70 70 69
41 44 42 35 29 19 16 12 7 2 -4 -8 -8 0 4 11 17 18 19 29 36 46 47 46 47 57 58 58 59 53 57 61 61 61 62 66 67 69 69 69 69 69 68 67 67 66 69 71 72 72 71 71 71 70 70 70 70 70 70 70 70 70 69 69 69 69 68 68 68 68 67 67 67 67 67 68 70 71 71 71 71 70 70 70 70 70 69 68 68 69 69 70 70 70 70 69 69
36 37 37 33 28 29 14 10 4 1 -6 -4 -15 5 9 17 20 18 19 25 35 39 47 44 49 47 54 59 60 60 61 57 62 63 64 66 67 70 70 69 69 68 67 68 68 68 69 72 72 72 71 71 71 70 70 70 70 70 70 70 70 69 69 69 69 69 68 68 68 68 68 67 68 67 67 69 71 71 71 71 71 71 69 69 69 69 68 69 69 70 70 70 70 70 70 69 69
32 32 27 25 20 21 18 10 5 0 -4 -5 5 12 15 17 19 19 18 28 38 35 48 45 47 50 49 58 60 61 62 62 61 63 65 66 69 70 70 68 68 68 68 68 68 68 69 72 72 72 71 71 70 70 70 70 70 70 70 69 69 69 69 69 69 69 69 69 68 68 67 67 67 67 68 69 70 70 70 70 70 70 69 69 69 68 68 69 70 70 70 70 70 70 69 69 69
38 36 24 16 18 14 11 11 10 6 8 4 9 14 16 20 20 18 17 16 35 36 41 47 50 50 56 60 55 62 63 64 63 65 66 67 68 70 68 68 68 68 68 69 70 69 72 72 72 72 71 71 70 70 71 70 70 70 70 70 69 69 70 69 69 69 69 69 69 68 68 68 68 68 69 69 70 70 69 69 70 69 69 69 69 68 68 69 70 70 70 70 70 69 69 68 68
28 25 23 20 14 14 12 11 3 11 6 7 9 18 36 21 20 20 17 14 31 49 46 49 48 42 50 56 58 61 64 65 65 68 67 67 68 69 69 68 68 68 68 68 70 72 70 72 72 72 71 71 71 70 71 70 70 70 70 70 70 70 70 70 70 70 70 70 70 69 69 69 68 70 71 70 70 70 70 70 70 69 69 69 69 68 68 69 70 70 70 70 70 69 69 69 68
23 24 20 14 14 13 1 5 2 -2 3 9 13 17 16 16 17 19 18 14 34 47 50 52 46 45 53 55 59 61 64 67 67 67 68 68 69 68 68 68 67 67 68 69 71 69 69 72 72 72 71 71 71 71 71 71 71 70 70 71 71 71 71 70 70 71 71 70 71 72 72 71 71 70 70 70 69 70 70 69 69 69 69 69 69 68 68 69 70 70 70 70 70 69 69 68 68
21 10 20 12 8 2 8 -5 -3 -1 1 13 14 15 13 12 14 17 17 31 44 48 51 50 46 49 51 56 60 64 67 67 66 67 68 68 67 67 68 68 68 68 68 70 71 70 69 69 72 72 71 71 71 71 71 71 71 71 71 71 71 71 71 71 71 71 71 71 72 71 71 71 71 70 70 69 69 69 69 69 69 69 69 69 69 69 69 69 70 70 70 70 70 69 69 68 68
21 12 9 5 10 7 1 -2 -6 -1 7 14 11 11 11 12 17 18 26 39 47 49 49 51 50 53 53 56 58 64 66 68 68 68 68 68 67 67 67 68 68 68 69 71 70 70 70 70 71 72 71 71 71 71 71 71 71 71 71 71 71 71 71 71 71 71 70 71 71 71 71 70 70 71 70 69 69 69 70 69 69 69 69 69 69 68 69 70 70 70 70 70 69 69 68 68 67
16 16 8 5 6 8 5 -5 -4 8 14 10 9 13 15 15 17 27 35 39 46 46 47 53 53 53 56 57 60 65 66 67 69 69 69 68 68 68 68 69 68 69 70 70 69 70 71 70 70 70 70 72 71 71 71 71 71 71 71 71 71 71 71 71 71 71 71 71 71 71 71 70 70 71 71 70 70 70 69 69 69 69 68 69 69 69 69 70 71 71 70 69 69 69 68 68 67
15 14 13 5 12 5 -2 -4 4 5 10 9 12 24 25 17 29 38 38 40 43 46 54 53 54 56 60 59 61 61 63 67 68 70 68 68 68 68 68 68 70 69 70 70 70 70 70 70 70 70 71 71 70 71 71 71 71 71 71 71 71 71 71 71 71 71 71 71 71 71 70 70 71 71 71 71 70 70 69 69 69 68 69 69 68 69 70 70 70 71 70 69 69 69 68 67 67
21 18 13 13 10 5 3 -2 1 11 8 10 15 33 40 45 50 47 39 44 54 56 58 59 57 55 52 55 56 60 62 66 68 69 68 68 68 68 68 69 70 69 70 72 71 72 71 71 70 70 70 70 70 70 69 70 71 71 71 71 71 71 71 71 71 71 71 71 71 71 70 71 71 71 71 71 70 70 70 69 69 68 68 69 69 69 70 71 71 71 70 69 69 68 68 68 67
27 14 16 16 7 -1 2 6 15 11 8 11 20 36 43 49 52 47 51 51 57 59 58 52 58 59 52 52 57 60 62 66 68 67 67 67 67 67 67 70 69 69 70 72 71 71 70 72 70 69 69 70 70 70 70 69 71 71 71 71 71 71 71 71 71 71 71 71 70 70 70 71 71 71 71 70 70 70 70 68 69 68 68 69 69 70 70 70 71 71 70 69 69 68 68 67 67
25 20 16 11 9 -0 3 9 10 7 9 12 20 30 38 46 53 55 55 53 53 56 58 59 61 60 57 57 58 62 63 67 68 67 67 66 66 65 67 69 68 68 68 69 72 71 70 70 71 70 70 71 70 71 70 71 71 71 71 71 71 71 71 71 71 71 71 70 70 70 70 71 70 70 71 69 70 69 70 70 69 68 69 69 69 70 70 70 71 71 70 70 69 68 68 67 66
21 15 13 12 2 -7 7 12 10 10 10 13 18 25 34 42 52 55 55 55 56 57 58 60 61 61 61 61 63 63 64 67 67 66 64 64 65 64 64 67 68 68 68 68 68 69 70 70 71 71 71 71 71 71 70 70 71 70 69 70 69 70 71 71 71 69 70 70 70 69 70 70 70 69 69 70 69 70 69 69 69 69 69 69 69 69 70 70 70 70 70 69 69 68 67 65 65
17 17 15 8 -1 6 14 15 12 13 13 14 15 24 30 42 48 51 44 50 52 52 56 62 61 62 61 62 63 63 64 67 67 66 64 63 62 63 63 63 64 65 66 67 68 70 69 69 70 70 70 70 71 71 70 70 68 70 69 68 68 68 70 70 67 68 67 66 67 68 71 71 70 70 70 68 68 69 69 70 69 69 69 69 69 69 69 70 70 70 69 69 68 68 65 63 62
19 19 7 3 10 11 13 17 17 17 15 13 13 17 24 47 43 46 42 45 45 40 48 57 58 61 61 63 63 63 64 66 67 66 64 62 61 62 64 64 63 64 65 65 67 69 70 70 71 71 70 72 71 70 70 70 70 71 69 69 69 68 68 69 68 66 66 66 67 70 70 70 70 70 69 68 69 69 70 69 69 68 68 68 68 69 69 69 69 69 69 68 67 65 65 64 62
22 12 8 4 12 5 12 18 19 17 15 12 11 13 17 36 31 39 37 36 37 37 50 45 50 58 60 62 62 62 65 66 66 66 65 62 63 63 64 64 63 64 64 66 66 66 66 72 71 71 71 72 71 70 70 69 70 70 69 68 68 67 68 69 69 68 68 68 68 71 70 68 68 69 69 70 68 68 67 67 68 66 65 66 67 65 65 67 68 66 67 65 64 64 64 65 64
24 11 7 16 12 6 17 18 19 17 15 12 10 8 7 11 20 33 37 28 26 32 43 50 48 56 60 61 62 62 64 66 66 65 64 64 64 64 65 65 65 65 65 64 65 67 67 68 70 70 71 71 71 70 70 69 71 69 69 69 68 69 68 68 68 69 69 70 70 69 69 69 69 69 69 69 69 68 67 65 64 66 65 63 64 62 62 64 64 64 64 63 63 64 65 66 64
15 15 16 18 14 13 20 20 18 16 13 10 8 9 10 9 14 30 34 22 20 29 44 47 52 58 60 62 63 62 63 65 65 63 64 64 65 65 65 65 64 63 64 64 65 66 68 69 70 69 69 70 71 71 70 70 69 69 70 69 68 67 68 68 68 69 70 70 70 69 70 69 68 70 69 68 68 67 67 66 64 65 65 64 62 62 62 64 63 64 63 64 64 63 63 64 63
10 11 15 15 17 15 17 17 17 16 13 10 9 9 8 7 17 32 27 34 49 44 45 53 58 59 60 61 63 64 64 64 64 64 64 65 66 65 65 64 65 65 64 65 65 67 67 68 69 69 69 71 71 72 71 70 70 69 70 69 68 67 69 68 68 69 69 70 70 70 71 68 68 68 67 69 68 67 67 68 67 65 64 64 62 62 61 62 63 64 65 63 62 63 62 63 62
10 9 14 12 15 15 16 16 16 15 12 9 9 8 7 8 8 17 22 43 49 50 50 58 59 60 60 62 63 65 63 63 64 64 66 65 66 66 66 66 65 64 64 65 66 67 67 69 69 68 69 71 71 72 69 70 70 69 69 69 68 68 68 68 68 69 70 69 70 70 69 69 67 68 69 69 69 69 68 68 67 64 64 63 64 61 61 62 64 64 64 63 64 64 63 64 61
14 10 12 14 13 15 14 15 15 13 10 9 8 7 7 7 8 11 25 46 56 54 58 59 59 59 60 61 63 64 63 63 63 65 66 66 67 66 66 66 65 65 64 65 66 66 67 69 68 67 71 71 72 71 69 69 69 70 70 70 69 69 69 69 71 69 69 68 68 69 69 68 68 69 69 69 68 69 70 69 68 66 64 64 64 63 61 61 62 63 63 63 61 62 62 63 61
14 13 15 13 12 14 15 13 13 12 9 9 7 6 6 7 7 8 39 48 58 57 58 59 58 58 59 61 64 65 63 62 63 66 66 66 66 66 66 67 66 66 65 65 66 66 67 67 68 69 70 71 71 70 70 70 71 70 70 70 70 70 69 70 70 70 69 69 69 70 69 68 68 68 69 68 68 69 69 69 68 67 64 63 64 64 64 62 62 62 63 62 63 62 62 62 61
16 14 13 14 14 14 12 11 13 10 6 8 6 5 6 7 10 36 44 57 58 55 57 58 57 59 59 61 62 63 62 61 63 65 66 66 65 64 66 65 66 66 66 66 64 66 66 68 69 69 70 71 71 70 70 70 71 71 70 70 71 70 69 70 69 70 69 68 69 69 69 69 68 68 69 67 67 68 68 68 67 67 64 63 64 63 64 63 62 62 63 64 64 63 63 63 62
16 16 11 13 11 8 8 8 10 10 5 7 9 5 5 5 10 26 55 58 59 55 56 57 57 61 59 60 61 62 61 61 63 63 65 65 65 66 65 66 66 66 66 66 65 66 66 68 68 68 70 71 71 71 70 70 70 69 68 68 68 68 69 69 69 69 69 69 70 69 69 69 69 68 70 68 67 68 69 68 68 68 67 65 64 65 64 64 63 62 65 66 65 64 64 65 63
14 12 8 9 6 3 7 9 9 7 5 8 8 6 5 20 25 22 43 55 57 58 54 57 58 59 57 61 61 62 61 62 63 64 64 65 66 66 66 67 66 66 66 66 66 65 66 67 67 67 67 69 70 70 70 69 68 68 67 67 68 68 68 68 69 69 70 70 70 70 69 69 69 69 68 69 68 68 68 68 68 68 67 68 65 65 65 64 63 62 64 64 63 64 64 64 64
5 6 8 8 2 2 7 8 7 5 7 8 7 10 15 31 34 30 44 55 53 52 53 56 59 60 58 61 61 60 61 63 64 64 65 66 66 65 66 66 66 66 65 65 65 65 66 66 67 67 68 67 68 67 68 68 68 67 66 66 67 70 70 70 69 69 69 70 69 69 70 70 69 69 68 69 68 68 67 68 68 68 68 68 66 64 64 64 63 62 62 62 64 63 62 63 63
7 6 3 4 4 2 6 8 5 3 4 7 6 11 22 35 41 41 41 52 53 51 50 55 56 58 59 60 59 58 61 62 63 64 65 66 66 65 66 66 66 65 66 65 65 65 64 66 67 67 67 67 67 67 68 67 67 67 67 66 68 69 69 69 69 69 69 68 68 68 69 70 70 69 68 67 69 68 67 67 68 68 68 68 67 66 65 63 64 63 63 63 62 63 63 63 62
8 5 10 6 2 3 5 6 6 8 4 7 5 3 14 31 41 44 45 51 52 51 51 56 56 58 58 57 58 58 59 61 61 62 64 64 65 65 66 66 66 67 66 65 65 65 65 65 66 66 66 67 68 67 67 67 68 67 67 67 67 69 69 68 69 69 68 68 68 68 69 69 69 69 68 68 69 68 68 67 68 68 69 68 67 67 66 64 64 64 64 63 64 64 64 64 65
9 4 15 6 -1 3 2 5 5 6 5 4 5 20 35 39 40 43 45 46 54 50 50 55 56 57 58 57 56 57 59 61 62 63 63 64 63 64 66 66 66 66 65 66 66 65 65 65 66 66 66 66 66 66 66 67 67 67 67 67 69 68 69 67 67 68 68 68 67 67 68 69 69 68 69 69 69 69 68 68 67 69 68 68 67 67 66 65 65 66 66 65 65 64 63 64 65
12 10 16 7 1 4 2 4 4 5 5 7 27 33 37 40 43 45 47 48 50 52 49 53 54 56 56 57 57 58 58 61 62 63 63 64 64 65 65 66 65 64 64 65 66 66 65 66 66 67 66 66 66 66 66 66 66 67 67 68 68 69 70 68 70 68 67 68 70 69 68 68 67 68 69 69 68 69 68 68 68 68 68 68 68 67 66 66 66 66 65 66 67 65 63 65 65
9 5 11 6 8 3 2 5 8 7 5 14 17 29 37 41 43 46 48 50 52 51 54 54 55 55 57 57 59 58 59 60 62 63 64 63 64 65 65 66 65 64 64 65 65 65 65 66 66 66 66 66 66 67 66 66 66 65 65 66 67 69 69 68 69 69 68 66 68 69 68 68 67 69 68 67 67 67 67 68 68 68 68 68 68 67 66 65 66 67 66 66 66 65 65 64 65
9 4 5 2 -0 1 6 8 15 22 33 35 35 38 40 42 44 45 48 49 49 49 52 54 54 56 57 58 59 60 61 61 62 63 64 63 64 64 65 65 64 64 65 65 66 66 66 65 66 65 67 67 66 65 66 67 66 66 67 66 67 67 67 67 67 68 67 67 67 66 67 68 68 68 67 67 67 67 67 67 68 67 67 67 67 67 68 68 68 67 67 65 65 64 64 65 65
6 3 3 1 0 2 6 9 20 19 34 36 36 37 41 43 44 45 47 47 47 48 49 51 53 56 57 58 59 61 62 62 62 63 63 64 63 64 65 64 64 64 64 65 65 65 65 65 65 64 65 65 66 66 66 66 67 66 66 65 67 67 67 66 66 66 67 67 67 67 67 67 66 67 67 67 67 67 67 68 68 67 67 67 68 66 67 67 66 66 67 65 64 65 64 64 64
7 5 4 4 1 7 10 10 11 14 28 34 32 35 40 43 44 45 46 45 48 51 52 53 54 55 57 58 59 59 60 61 61 61 63 63 63 64 64 64 64 65 65 64 65 65 66 66 66 66 65 65 65 65 65 65 66 66 67 67 67 67 67 66 65 66 68 67 67 67 67 66 66 65 66 66 67 67 67 67 67 67 67 67 66 66 67 65 65 64 66 65 64 64 64 65 65
11 7 7 4 2 7 9 16 18 26 28 33 33 36 41 43 44 45 45 44 47 49 52 53 53 54 54 54 55 56 57 57 58 58 60 62 62 63 63 63 64 64 64 65 65 65 65 65 66 65 65 66 66 65 66 66 66 66 67 68 68 66 66 67 68 66 67 67 65 66 66 66 65 65 65 65 65 65 66 66 66 65 66 67 66 66 66 66 64 64 65 65 65 63 63 63 65
14 9 5 2 4 4 6 15 22 27 33 35 33 35 38 40 41 42 45 45 45 47 48 51 52 52 53 53 53 54 54 54 54 55 55 57 58 58 59 60 61 62 62 62 63 63 64 64 66 66 66 66 66 67 67 66 66 66 66 67 66 67 67 66 66 65 66 66 65 66 66 66 65 65 66 66 65 65 65 65 66 66 66 66 65 66 65 64 65 65 64 64 65 64 62 63 64
14 14 6 4 6 9 15 25 26 29 32 32 25 21 30 39 39 38 41 44 46 46 47 50 50 50 51 51 51 52 53 53 52 52 53 54 55 56 56 57 58 59 61 62 62 62 63 63 64 65 66 67 67 68 67 67 66 65 66 65 65 65 65 64 63 64 65 64 64 66 65 65 66 66 65 65 64 65 65 65 65 65 66 66 65 64 65 64 64 64 64 64 63 64 64 63 62
16 14 10 6 5 11 16 19 16 20 22 29 29 17 29 36 36 40 42 44 45 48 48 48 49 49 49 49 49 50 50 51 51 51 51 52 53 53 54 55 56 57 58 60 61 61 62 62 63 63 64 65 66 68 68 67 67 67 66 66 65 65 64 65 65 65 65 64 64 65 66 67 65 65 65 64 65 65 65 65 65 65 64 64 65 64 64 65 64 65 66 64 64 64 63 62 62
10 12 12 10 7 12 13 13 14 16 21 26 29 20 27 33 35 41 42 42 43 46 47 48 48 48 48 49 49 49 49 49 50 50 50 51 52 52 53 53 55 56 57 58 58 60 60 61 62 63 63 63 64 65 66 66 66 66 65 66 66 66 66 64 65 65 65 65 65 65 65 66 65 65 65 65 65 65 64 65 65 64 64 63 64 63 64 66 66 66 65 65 65 64 64 63 63
10 12 10 10 8 10 9 7 9 13 19 20 20 16 20 27 38 40 40 38 42 45 46 46 47 47 47 47 48 48 48 48 48 48 49 50 50 50 51 52 53 54 55 56 57 58 58 59 59 61 62 63 63 64 64 64 65 65 65 65 65 64 64 64 64 64 64 65 65 64 64 64 64 65 64 65 65 65 65 65 64 63 64 63 63 63 63 64 64 65 62 64 65 65 64 65 64
11 12 11 10 9 8 9 9 7 15 16 13 16 17 16 29 36 36 39 37 40 44 46 46 46 46 46 46 46 47 47 47 47 48 48 49 49 50 51 52 52 52 54 55 55 57 57 57 58 58 59 61 61 62 63 64 65 64 64 64 64 63 64 63 64 63 65 65 64 64 64 64 63 64 65 64 65 65 65 64 63 63 64 63 63 62 63 63 64 63 63 65 64 63 64 63 63
12 12 12 12 11 12 13 12 10 16 12 13 16 19 17 21 34 35 39 40 44 45 46 46 46 45 45 46 45 46 46 46 46 47 48 49 49 50 50 51 52 53 54 54 55 55 56 57 57 57 58 58 60 61 62 63 63 64 64 64 64 63 64 64 63 64 64 65 64 64 64 63 64 64 64 65 65 65 65 64 64 63 63 63 63 64 64 64 63 63 64 64 63 64 65 65 64
11 9 8 9 13 13 16 17 16 12 11 15 19 17 21 18 32 38 44 45 45 45 45 45 45 45 45 45 45 45 45 46 46 46 46 48 49 49 50 50 51 52 53 53 54 55 55 56 56 56 57 58 58 59 60 61 61 62 63 64 64 65 64 63 63 63 64 64 63 63 63 62 63 63 65 65 65 65 64 64 64 64 63 64 64 64 64 64 65 64 63 63 64 66 66 66 65
10 8 9 10 10 11 10 9 10 8 9 22 20 19 19 30 35 42 44 44 44 45 45 44 45 44 45 44 45 45 45 45 45 45 46 47 47 48 49 49 50 51 51 52 53 54 54 55 55 56 56 57 57 58 59 60 61 61 62 62 64 64 64 64 64 63 64 64 62 63 63 61 62 62 63 64 65 65 64 64 64 64 63 64 64 64 64 66 66 65 65 65 66 65 65 65 64
10 9 9 8 8 9 11 7 9 7 23 22 24 22 22 41 43 44 44 45 44 44 45 45 44 45 44 44 44 44 45 44 45 45 45 46 46 47 48 48 49 50 50 51 52 52 53 54 54 55 55 56 57 58 58 59 60 61 62 61 62 62 63 63 63 63 63 63 63 63 63 62 62 63 63 64 64 64 63 64 64 64 64 64 65 65 65 65 66 64 65 64 65 64 64 64 65
10 8 6 9 9 9 11 4 8 10 17 26 28 26 28 32 40 43 44 44 44 43 43 44 45 45 45 44 43 44 44 44 44 44 44 45 46 47 48 48 48 49 50 50 51 51 52 52 53 54 54 55 56 57 57 58 59 60 61 62 61 61 61 62 62 62 62 63 62 62 63 63 63 63 63 64 64 65 65 64 64 65 65 65 65 66 65 64 64 64 65 64 63 64 63 64 64
8 6 5 8 9 11 5 18 11 15 23 23 30 30 41 40 44 43 43 42 42 43 42 43 43 44 44 44 43 43 43 43 43 44 44 45 46 47 47 47 48 48 49 50 50 50 51 51 52 53 53 54 55 55 56 57 58 59 60 61 62 62 62 61 61 61 62 62 62 62 63 63 63 63 63 63 64 65 64 63 63 64 65 65 64 64 64 63 65 65 64 64 65 64 63 63 64
9 3 5 4 5 4 19 23 30 25 18 25 34 36 41 44 43 42 41 40 41 42 41 41 43 43 44 43 42 42 42 42 43 43 43 45 45 46 46 46 47 48 48 49 49 50 50 51 51 52 52 53 54 55 55 56 57 57 59 60 61 61 62 62 62 62 62 62 63 63 62 63 63 63 63 63 64 64 64 63 63 64 64 64 65 63 64 65 65 65 65 64 64 63 64 63 64
8 9 6 12 14 14 17 11 17 15 11 27 32 31 36 34 34 42 40 41 41 41 41 41 43 43 43 43 43 42 42 42 43 43 44 44 44 45 45 46 46 47 48 48 49 50 50 50 50 50 51 52 52 53 54 55 55 55 57 58 59 60 61 62 62 62 62 62 63 62 62 62 62 63 63 63 63 63 64 64 63 64 64 65 65 64 63 64 65 64 63 63 63 63 63 63 63
9 3 -2 7 12 12 16 12 13 11 12 25 29 32 34 31 37 40 40 40 41 41 41 41 42 43 42 42 42 42 43 43 42 43 42 43 44 45 45 46 46 46 47 48 48 48 49 49 50 50 50 51 52 53 53 54 54 54 55 56 57 58 59 60 61 62 62 61 61 62 62 62 63 63 64 63 63 63 63 63 63 63 64 64 64 64 64 64 64 64 64 63 63 63 63 63 64
15 3 9 2 14 13 12 15 16 11 12 23 23 31 27 33 39 40 40 41 41 40 40 40 41 42 43 42 42 41 42 42 41 42 42 42 44 45 46 46 45 46 46 47 48 48 48 49 49 49 50 50 51 52 52 53 53 53 54 54 55 55 57 59 61 61 61 61 60 61 62 62 63 64 63 63 63 62 62 62 62 62 63 63 63 64 64 63 64 64 64 63 63 63 62 63 63
13 11 11 11 21 17 11 19 10 8 16 17 23 24 27 42 43 41 41 41 42 41 41 41 42 42 42 42 42 42 41 42 42 42 42 43 44 44 45 46 45 46 47 47 47 47 47 47 48 48 49 49 49 50 50 51 51 52 53 53 54 55 56 57 59 61 62 61 61 61 61 63 63 64 62 62 63 62 61 62 62 63 62 63 64 64 63 63 63 63 63 63 62 62 62 62 62
12 12 11 6 15 16 13 16 18 20 14 16 19 21 34 41 44 43 41 42 42 41 41 41 41 41 42 42 42 41 41 41 41 42 42 43 43 43 44 44 45 45 46 46 45 46 46 47 46 47 46 47 48 48 48 49 50 51 52 53 53 54 54 56 58 59 61 61 61 61 61 61 62 61 62 61 62 62 62 62 62 62 62 62 63 62 62 62 62 63 63 63 63 62 62 61 62